Regional Weather Roundup
Issued by NWS Wakefield, VA

Home | Current Version | Previous Version | Text Only | Print | Product List | Glossary Off
Versions: 1 2 3 4 5 6 7 8 9 10 11 12 13 14 15 16 17 18 19 20 21 22 23 24 25 26 27 28 29 30 31 32 33 34 35 36 37 38 39 40 41 42 43 44 45 46 47 48 49 50

000
ASUS41 KAKQ 020515
RWRAKQ

REGIONAL WEATHER ROUNDUP
NATIONAL WEATHER SERVICE WAKEFIELD VA
100 AM EDT TUE JUN 02 2015

Note: "fair" indicates few or no clouds below 12,000 feet with no
significant weather and/or obstructions to visibility. * = Denotes
station may not report precipitation (e.g., rain,snow,etc.),
thunder or fog.

VAZ042-051-052>054-056-020600-
NORTHERN VIRGINIA

CITY           SKY/WX    TMP DP  RH WIND       PRES   REMARKS
WASH NATIONAL  LGT RAIN  72  68  88 VRB3      30.03S
DULLES         RAIN      70  66  88 SE3       30.03S FOG
FORT BELVOIR   HVY RAIN  70  68  94 NW5       30.03R FOG
QUANTICO       TSTM      69  66  90 CALM      30.01F
FREDERICKSBRG* LGT RAIN  71  71 100 E3        30.01F
STAFFORD*      CLOUDY    65  64  95 CALM      30.05F
WARRENTON      RAIN      68  68 100 CALM      30.01F
CULPEPER*      CLOUDY    65  65  99 CALM      30.01F
MANASSAS*        N/A     68  68 100 N5        30.02F
LEESBURG*      HVY RAIN  70  70 100 E3        30.04F
WINCHESTER     RAIN      63  63 100 CALM      30.05F
FRONT ROYAL*   CLOUDY    63  61  94 N5        30.03F
LURAY*         CLOUDY    66  66 100 N8        30.03S
$$

VAZ048-049-060>072-079>083-020600-
CENTRAL AND SOUTH CENTRAL VIRGINIA

CITY           SKY/WX    TMP DP  RH WIND       PRES   REMARKS
RICHMOND       CLOUDY    70  67  90 N5        30.02R
CHESTERFIELD*  NOT AVBL
PETERSBURG*    CLOUDY    69  69 100 CALM      30.01F
HANOVER        CLOUDY    67  66  97 E3        30.02F
TAPPAHANNOCK*  LGT RAIN  69  65  88 CALM      30.02F
QUINTON*       MOCLDY    68  67  98 S5        30.01S
CHARLOTTSVILLE CLOUDY    65  64  97 CALM      30.01S
GORDONSVILLE*  FAIR      64  64 100 CALM      30.00F
ORANGE*        LGT RAIN  66  64  94 CALM      30.02F
LOUISA*        DRIZZLE   68  66  94 E3        30.00F
BUMPASS*       MOCLDY    66  66  98 CALM      30.00F
FARMVILLE*     MOCLDY    69  69 100 S3        30.01R
CREWE*         FAIR      67  66  95 CALM      30.02R
FORT PICKETT*  FAIR      66  66 100 S6        30.02S
CHASE CITY*    FAIR      68  68 100 CALM      30.03R
CLARKSVILLE*   MOCLDY    68  68 100 S3        30.03R
SOUTH HILL*    MOCLDY    67  66  98 CALM      30.08S
LAWRENCEVILLE* FAIR      68  68 100 CALM      30.02F
EMPORIA*       MOCLDY    68  68 100 E3        30.04S
$$

VAZ088>098-020600-
SOUTHEAST VIRGINIA

CITY           SKY/WX    TMP DP  RH WIND       PRES   REMARKS
NORFOLK        CLOUDY    73  65  75 NE5       30.03F
VIRGINIA BEACH CLOUDY    77  66  68 CALM      30.03S
NORFOLK NAVAL  CLOUDY    78  66  66 E3        30.04F
WEST POINT*    CLOUDY    71  68  91 CALM      30.04F
SALUDA*        FAIR      67  66  97 CALM      30.03F
NEWPORT NEWS   CLOUDY    74  68  81 CALM      30.03F
LANGLEY AFB    CLOUDY    70  66  89 NE5       30.02F
FORT EUSTIS    CLOUDY    70  70 100 SE2       30.01F
WILLIAMSBURG*  CLOUDY    72  72 100 CALM      30.03F
HR EXEC AP*    FAIR      70  64  83 CALM      30.04F
FRANKLIN*      MOCLDY    70  66  89 CALM      30.03F
WAKEFIELD      CLOUDY    70  68  93 CALM      30.03F
$$

VAZ020-022-025-037-045-020600-
WEST CENTRAL AND SOUTHWEST VIRGINIA

CITY           SKY/WX    TMP DP  RH WIND       PRES   REMARKS
STAUNTON*      CLOUDY    69  66  91 CALM      30.05S
WAYNESBORO*    CLOUDY    65  64  99 NW3       30.04S
HOT SPRINGS VA CLOUDY    61  61 100 W7        30.10S FOG
LYNCHBURG      MOCLDY    63  63 100 S5        30.03S FOG
DANVILLE       MOCLDY    69  66  90 W6        30.02S
SOUTH BOSTON*  CLOUDY    67  66  95 S3        30.02S
MARTINSVILLE   MOCLDY    65  65 100 CALM      30.05S
ROANOKE        MOCLDY    66  65  96 CALM      30.04S
BLACKSBURG     MOCLDY    63  61  96 CALM      30.10S
DUBLIN*        MOCLDY    64  64 100 W5        30.09S
MARION*        FOG       61  60  96 CALM      30.13S VSB 1/4
HILLSVILLE*    NOT AVBL
RICHLANDS*     CLOUDY    62  62 100 CALM      30.10F
WISE*          CLOUDY    61  61 100 CALM      30.12S
ABINGDON*      CLOUDY    63  63 100 CALM      30.09S
$$

MDZ021>025-VAZ099-100-020600-
SOUTHERN MARYLAND AND THE DELMARVA PENINSULA

CITY           SKY/WX    TMP DP  RH WIND       PRES   REMARKS
PATUXENT RIVER LGT RAIN  68  67  96 SE5       30.04R
BAY BRIDGE APT RAIN     N/A N/A N/A E10       30.02F
LEONARDTOWN    CLOUDY    68  64  88 CALM      30.06R
DOVER          TSTM      66  66 100 E8        30.01  FOG
GEORGETOWN     RAIN      68  65  90 S10       30.04F FOG
EASTON         RAIN      69  69 100 E6        30.06F
CAMBRIDGE      CLOUDY    72  68  88 SE3       30.04R
SALISBURY      TSTM      68  66  93 SE5       30.06F FOG
OCEAN CITY     RAIN      69  66  90 W12G26    30.06R FOG
WALLOPS ISLAND CLOUDY    70  68  93 NW7       30.07R
ACCOMACK*      LGT RAIN  70  68  94 NW3       30.05F
$$

NCZ012>017-030>032-020600-
NORTH CENTRAL AND EASTERN NORTH CAROLINA

CITY           SKY/WX    TMP DP  RH WIND       PRES   REMARKS
ROANOKE RAPIDS FAIR      68  68 100 CALM      30.03R
RALEIGH        MOCLDY    70  67  90 CALM      30.05R
ELIZABETH CITY PTCLDY    73  68  84 S5        30.04F
AHOSKIE*       MOCLDY    70  65  83 CALM      30.03S
EDENTON*       MOCLDY    74  68  82 S8        30.04F
CURRITUCK*     PTCLDY    74  66  75 CALM      30.04F
KILL DEVIL HLS PTCLDY    74  69  82 SW5       30.04F
MANTEO         PTCLDY    75  69  81 SW10      30.05F
CAPE HATTERAS  PTCLDY    76  68  76 SW10      30.06F
TARBORO*       FAIR      73  67  80 S3        30.03S
GOLDSBORO      MOCLDY    73  69  87 CALM      30.01F
WASHINGTON     CLEAR     72  68  86 S3        30.05S
GREENVILLE     PTCLDY    72  70  94 S7        30.05F
NEW BERN       PTCLDY    69  66  90 CALM      30.06F
WILMINGTON     PTCLDY    72  69  90 S5        30.05F
$$

VAZ048-020600-
ELSEWHERE

CITY           SKY/WX    TMP DP  RH WIND       PRES   REMARKS
HARRISBURG PA  CLOUDY    60  56  86 E6        30.08R
BALTIMORE      LGT RAIN  68  66  93 E8        30.02F FOG
ANNAPOLIS      RAIN      70  67  90 SE10      30.02F FOG
ANDREWS AFB    HVY RAIN  68  68 100 E7        30.02R FOG
PHILADELPHIA   LGT RAIN  58  54  86 NE12      30.08F
HENDERSON NC   MOCLDY    68  65  90 S6        30.05R
GREENSBORO     MOCLDY    68  64  87 S3        30.02F
ROCKY MOUNT    MOCLDY    71  69  93 SW5       30.03S
$$

VAZ100-020600-
MARINE

STATION/POSITION TIME  TEMP    WIND        PRES    WAVE   SWELL
                       AIR SEA DIR/SP/G            HT/PER HT/PER
                 (UTC) (F)     (DEG/KT/KT) (MB)    (FT/S) (FT/S)
BRANDYWINE LGT   0400   67 63   40/  5/  6 1017.2S
CAPE MAY NJ      0400   68 68   90/  3/  5 1017.1F
LEWES DE         0400   67 62   10/  2/  2 1017.1S
15NM E FENWICK I 0450   69 66              1017.6R   3/ 9
OCEAN-CITY-INLET 0400   66 57  200/  9/ 11 1016.9R
WACHAPREAGUE VA  0400   73 78  280/  4/  7 1017.8R
THOMAS POINT MD  0500   69 74  100/ 15/ 17 1017.0F
GOOSES REEF MD   0500   69 72  130/ 10/ 25 1017.9R   2/ 3
COVE POINT MD    0400   69     190/  2/  3 1017.4F
SOLOMONS ISLAND  0400      73                N/A
BISHOPS HEAD MD  0400   69 77  350/  5/ 12 1017.1R
PINEY POINT MD   0400          220/  4/  5   N/A
CAMBRIDGE MD     0400   69 76   70/  3/  4 1017.4R
LEWISETTA VA     0400   68 75              1017.1R
RAPPAHANNOCK LGT 0400          270/ 13/ 16 1018.4R
STINGRAY PT      0500   69 74  230/  2/  4 1016.5F   1
YORK RVR RNG VA  0400   71     300/ 10/ 12 1017.1R
YORKTOWN VA      0400   69 76   CALM  /  3 1017.1F
JAMESTOWN VA     0500   71 81   90/  4/  4   N/A
DOMINION TERM VA 0400   73     350/  8/ 10 1017.5R
KIPTOPEKE VA     0400      78  320/ 17/ 21   N/A
CHES BAY BRIDGE  0400   74 62  310/ 15/ 18 1017.3R
CAPE HENRY VA    0400   76     210/  8/ 13 1015.8S
CHESAPEAKE LGHT  0400   70     200/ 20/ 21 1017.5F
WILLOUBY STN VA  0400   74     310/  9/ 10 1018.3R
CAPE HENRY BUOY  0428      65                N/A     3/ 9
1ST LANDING BUOY 0500      66              1016.9F
CAPE CHARLES BUO 0426      67                N/A     3/ 9   2/ 9
OFFSHORE WE BUOY 0411      68                N/A     3/ 9   2/ 9
64NM E OF VA BCH 0450   74 73  220/  8/  8 1017.6R   3/ 8   3/ 8
DUCK PIER NC     0400   76 55  210/ 13/ 17 1016.7S
44100 DUCK FRF   0424      74                N/A     3/ 9
44056 DUCK FRF   0411      62                N/A     2/ 8
OREGON INLET NC  0400   77 78  190/ 13/ 15 1017.8S
HATTERAS NC      0400   77 81  200/  5/ 10 1017.7R
DIAMOND SHLS NC  0450   77 78  190/ 12/ 16 1017.8F   4/ 8   3/ 8
CAPE LOOKOUT NC  0500   76     200/  8/  9 1017.5F
$$


USA.gov is the U.S. government's official web portal to all federal, state and local government web resources and services.